QPF
0.04 0.05 0.05 0.05 0.04 0.04 0.05 0.06 0.06 0.06 0.05 0.04 0.03 0.03 0.01 0.01 0.02 0.02 0.03 0.03 0.03 0.02 0.03 0.05 0.04 0.03 0.05 0.05 0.07 0.09 0.11 0.15 0.12 0.15 0.19 0.20 0.22 0.24 0.20 0.14 0.10 0.09 0.06 0.04
0.05 0.04 0.03 0.03 0.02 0.02 0.04 0.05 0.06 0.05 0.04 0.04 0.03 0.03 0.01 0.01 0.01 0.02 0.02 0.03 0.03 0.03 0.03 0.06 0.06 0.05 0.06 0.06 0.06 0.06 0.07 0.12 0.12 0.13 0.19 0.22 0.21 0.21 0.21 0.17 0.12 0.11 0.08 0.05
0.03 0.03 0.04 0.04 0.02 0.02 0.04 0.05 0.06 0.05 0.03 0.03 0.03 0.04 0.02 0.01 0.01 0.01 0.02 0.03 0.04 0.04 0.05 0.05 0.07 0.06 0.06 0.07 0.06 0.04 0.05 0.08 0.11 0.12 0.18 0.26 0.28 0.25 0.23 0.20 0.15 0.12 0.09 0.06
0.02 0.02 0.03 0.05 0.04 0.03 0.04 0.03 0.04 0.04 0.03 0.03 0.03 0.04 0.02 0.01 0.01 0.01 0.02 0.02 0.03 0.04 0.05 0.06 0.08 0.07 0.06 0.08 0.07 0.04 0.04 0.06 0.09 0.11 0.14 0.23 0.31 0.29 0.22 0.20 0.16 0.14 0.09 0.06
0.01 0.01 0.02 0.04 0.04 0.04 0.03 0.02 0.03 0.03 0.02 0.02 0.02 0.03 0.02 0.02 0.01 0.01 0.01 0.01 0.01 0.02 0.04 0.06 0.09 0.09 0.08 0.11 0.10 0.06 0.05 0.06 0.07 0.10 0.12 0.16 0.25 0.30 0.26 0.22 0.19 0.17 0.13 0.08
0.01 0.01 0.02 0.03 0.02 0.03 0.03 0.03 0.03 0.02 0.02 0.03 0.02 0.03 0.05 0.04 0.03 0.02 0.01 0.01 0.01 0.02 0.03 0.05 0.09 0.11 0.10 0.14 0.16 0.10 0.08 0.07 0.07 0.09 0.12 0.15 0.20 0.27 0.31 0.28 0.23 0.19 0.16 0.10
0.01 0.02 0.01 0.02 0.02 0.03 0.03 0.04 0.04 0.03 0.03 0.02 0.02 0.04 0.07 0.05 0.03 0.02 0.02 0.01 0.02 0.02 0.03 0.05 0.08 0.10 0.10 0.13 0.16 0.11 0.08 0.08 0.09 0.10 0.11 0.13 0.16 0.21 0.28 0.31 0.28 0.23 0.19 0.12
0.02 0.02 0.02 0.02 0.02 0.03 0.02 0.02 0.04 0.04 0.02 0.01 0.02 0.04 0.06 0.04 0.02 0.02 0.02 0.02 0.01 0.02 0.03 0.06 0.07 0.08 0.07 0.09 0.13 0.10 0.08 0.07 0.08 0.11 0.11 0.12 0.14 0.18 0.22 0.27 0.29 0.26 0.21 0.13
0.02 0.01 0.01 0.01 0.01 0.01 0.01 0.01 0.01 0.03 0.02 0.01 0.02 0.03 0.03 0.02 0.01 0.01 0.02 0.02 0.01 0.02 0.03 0.05 0.06 0.06 0.05 0.07 0.09 0.08 0.08 0.09 0.09 0.09 0.10 0.11 0.14 0.17 0.19 0.20 0.24 0.25 0.23 0.17
0.01 0.01 0.00 0.00 0.01 0.01 0.00 0.01 0.02 0.03 0.03 0.02 0.01 0.03 0.05 0.04 0.02 0.02 0.02 0.02 0.02 0.02 0.02 0.03 0.05 0.05 0.04 0.06 0.08 0.05 0.06 0.10 0.10 0.09 0.09 0.09 0.12 0.16 0.18 0.18 0.20 0.22 0.21 0.18
0.00 0.01 0.01 0.00 0.00 0.00 0.00 0.01 0.02 0.03 0.03 0.04 0.02 0.03 0.06 0.04 0.02 0.02 0.02 0.01 0.01 0.02 0.02 0.02 0.03 0.04 0.03 0.05 0.08 0.05 0.03 0.08 0.11 0.09 0.07 0.06 0.10 0.16 0.20 0.19 0.17 0.18 0.19 0.17
0.00 0.02 0.01 0.00 0.00 0.00 0.00 0.01 0.02 0.04 0.03 0.02 0.02 0.02 0.02 0.02 0.02 0.02 0.01 0.01 0.01 0.01 0.02 0.02 0.03 0.04 0.02 0.04 0.07 0.06 0.03 0.06 0.12 0.11 0.07 0.06 0.07 0.13 0.21 0.22 0.20 0.18 0.17 0.16
0.02 0.04 0.03 0.01 0.00 0.00 0.00 0.00 0.01 0.02 0.03 0.02 0.02 0.02 0.01 0.01 0.01 0.01 0.01 0.01 0.01 0.01 0.02 0.02 0.02 0.03 0.03 0.03 0.05 0.06 0.03 0.04 0.09 0.13 0.11 0.07 0.07 0.10 0.15 0.23 0.23 0.20 0.17 0.13
0.04 0.05 0.03 0.01 0.00 0.00 0.01 0.00 0.00 0.02 0.04 0.02 0.01 0.00 0.00 0.00 0.01 0.01 0.01 0.01 0.01 0.01 0.02 0.03 0.02 0.03 0.04 0.03 0.05 0.05 0.04 0.03 0.05 0.10 0.13 0.11 0.09 0.09 0.11 0.16 0.25 0.25 0.20 0.14
0.04 0.04 0.01 0.00 0.00 0.00 0.00 0.01 0.01 0.01 0.01 0.01 0.00 0.00 0.00 0.00 0.00 0.01 0.01 0.01 0.01 0.02 0.02 0.02 0.02 0.02 0.04 0.03 0.04 0.04 0.04 0.04 0.03 0.05 0.09 0.12 0.11 0.10 0.11 0.13 0.17 0.25 0.25 0.17
0.03 0.03 0.02 0.01 0.00 0.00 0.01 0.00 0.01 0.01 0.01 0.01 0.01 0.00 0.00 0.00 0.00 0.01 0.01 0.01 0.02 0.02 0.02 0.02 0.02 0.02 0.03 0.03 0.03 0.04 0.03 0.03 0.02 0.03 0.05 0.09 0.11 0.11 0.12 0.12 0.13 0.16 0.22 0.20
0.02 0.03 0.03 0.02 0.00 0.01 0.01 0.01 0.01 0.01 0.01 0.01 0.02 0.01 0.00 0.00 0.00 0.01 0.01 0.02 0.02 0.02 0.02 0.02 0.02 0.02 0.03 0.02 0.01 0.02 0.03 0.03 0.02 0.03 0.04 0.07 0.08 0.10 0.11 0.10 0.12 0.14 0.15 0.17
0.02 0.03 0.05 0.03 0.01 0.01 0.01 0.00 0.01 0.01 0.01 0.01 0.01 0.00 0.00 0.01 0.00 0.01 0.01 0.02 0.03 0.02 0.02 0.02 0.02 0.02 0.02 0.02 0.01 0.01 0.02 0.03 0.03 0.02 0.05 0.07 0.06 0.08 0.09 0.10 0.11 0.14 0.13 0.12
0.01 0.03 0.05 0.04 0.02 0.01 0.00 0.00 0.00 0.01 0.01 0.01 0.00 0.00 0.00 0.01 0.01 0.01 0.01 0.01 0.02 0.03 0.03 0.02 0.01 0.02 0.02 0.01 0.02 0.02 0.02 0.02 0.03 0.02 0.06 0.07 0.05 0.05 0.07 0.09 0.09 0.12 0.12 0.11
0.00 0.02 0.05 0.04 0.04 0.01 0.00 0.00 0.00 0.00 0.01 0.01 0.01 0.01 0.00 0.01 0.03 0.02 0.01 0.01 0.02 0.02 0.03 0.02 0.01 0.01 0.02 0.01 0.01 0.02 0.01 0.02 0.02 0.04 0.07 0.06 0.04 0.04 0.04 0.06 0.08 0.10 0.11 0.10
0.01 0.03 0.04 0.03 0.03 0.01 0.00 0.00 0.00 0.01 0.01 0.00 0.00 0.01 0.01 0.02 0.03 0.03 0.02 0.02 0.02 0.03 0.03 0.02 0.02 0.02 0.01 0.01 0.01 0.02 0.02 0.02 0.03 0.06 0.07 0.04 0.03 0.03 0.03 0.04 0.07 0.10 0.10 0.09
0.01 0.02 0.02 0.02 0.04 0.02 0.00 0.00 0.00 0.01 0.00 0.00 0.01 0.01 0.01 0.01 0.02 0.02 0.02 0.02 0.03 0.04 0.03 0.02 0.02 0.02 0.01 0.01 0.01 0.02 0.02 0.02 0.05 0.06 0.04 0.04 0.03 0.03 0.03 0.04 0.06 0.10 0.09 0.10
0.00 0.01 0.01 0.02 0.01 0.00 0.00 0.00 0.00 0.01 0.00 0.00 0.01 0.01 0.01 0.01 0.02 0.02 0.02 0.02 0.03 0.04 0.03 0.02 0.02 0.01 0.01 0.01 0.01 0.02 0.02 0.04 0.06 0.05 0.03 0.03 0.04 0.03 0.03 0.05 0.07 0.08 0.10 0.10
0.00 0.00 0.01 0.01 0.00 0.00 0.00 0.00 0.00 0.00 0.00 0.00 0.01 0.01 0.01 0.02 0.03 0.03 0.02 0.03 0.03 0.03 0.03 0.02 0.02 0.01 0.01 0.01 0.02 0.03 0.04 0.05 0.05 0.03 0.03 0.03 0.04 0.04 0.04 0.06 0.07 0.07 0.09 0.11
0.00 0.00 0.01 0.01 0.00 0.00 0.00 0.00 0.00 0.00 0.00 0.00 0.00 0.01 0.02 0.03 0.04 0.04 0.03 0.03 0.03 0.04 0.03 0.02 0.02 0.01 0.02 0.03 0.04 0.06 0.06 0.05 0.04 0.03 0.03 0.04 0.05 0.05 0.07 0.07 0.07 0.07 0.06 0.08
0.00 0.00 0.01 0.01 0.00 0.00 0.00 0.00 0.00 0.00 0.00 0.00 0.00 0.01 0.01 0.03 0.05 0.04 0.04 0.04 0.03 0.04 0.04 0.03 0.03 0.03 0.04 0.05 0.08 0.07 0.05 0.04 0.03 0.04 0.04 0.05 0.06 0.07 0.08 0.07 0.07 0.08 0.07 0.08
MSLP
1014.48 1014.29 1014.10 1013.90 1013.73 1013.57 1013.39 1013.15 1012.82 1012.35 1011.73 1011.00 1010.17 1009.33 1008.54 1007.87 1007.38 1007.07 1006.94 1006.92 1006.95 1006.95 1006.86 1006.62 1006.22 1005.69 1005.06 1004.39 1003.75 1003.18 1002.72 1002.37 1002.12 1001.96 1001.86 1001.80 1001.80 1001.86 1002.02 1002.31 1002.76 1003.38 1004.17 1005.10
1014.37 1014.13 1013.90 1013.73 1013.61 1013.53 1013.46 1013.33 1013.09 1012.67 1012.07 1011.29 1010.39 1009.43 1008.53 1007.75 1007.18 1006.84 1006.72 1006.75 1006.87 1006.98 1007.00 1006.86 1006.55 1006.06 1005.46 1004.79 1004.13 1003.53 1003.03 1002.64 1002.36 1002.16 1002.02 1001.93 1001.89 1001.91 1002.04 1002.29 1002.71 1003.30 1004.06 1004.97
1014.20 1013.88 1013.63 1013.48 1013.43 1013.46 1013.53 1013.53 1013.39 1013.05 1012.46 1011.64 1010.63 1009.55 1008.49 1007.58 1006.90 1006.50 1006.36 1006.44 1006.65 1006.87 1007.02 1007.00 1006.79 1006.38 1005.82 1005.17 1004.49 1003.86 1003.32 1002.88 1002.54 1002.29 1002.10 1001.97 1001.88 1001.88 1001.97 1002.20 1002.60 1003.17 1003.91 1004.80
1013.99 1013.61 1013.34 1013.22 1013.26 1013.42 1013.63 1013.77 1013.75 1013.47 1012.88 1012.00 1010.89 1009.65 1008.42 1007.34 1006.53 1006.04 1005.87 1005.97 1006.25 1006.58 1006.86 1006.98 1006.89 1006.58 1006.09 1005.47 1004.80 1004.14 1003.55 1003.05 1002.65 1002.33 1002.08 1001.89 1001.77 1001.72 1001.79 1002.00 1002.38 1002.93 1003.66 1004.53
1013.82 1013.38 1013.11 1013.03 1013.16 1013.45 1013.80 1014.09 1014.17 1013.93 1013.34 1012.38 1011.14 1009.73 1008.31 1007.05 1006.09 1005.49 1005.26 1005.37 1005.71 1006.14 1006.55 1006.80 1006.84 1006.65 1006.24 1005.68 1005.02 1004.36 1003.73 1003.18 1002.71 1002.32 1002.00 1001.75 1001.56 1001.47 1001.50 1001.68 1002.04 1002.57 1003.28 1004.13
1013.73 1013.27 1013.00 1012.98 1013.21 1013.62 1014.10 1014.49 1014.64 1014.44 1013.81 1012.77 1011.39 1009.81 1008.21 1006.77 1005.65 1004.93 1004.64 1004.73 1005.11 1005.62 1006.13 1006.51 1006.68 1006.60 1006.29 1005.79 1005.18 1004.53 1003.88 1003.29 1002.77 1002.31 1001.92 1001.59 1001.34 1001.18 1001.16 1001.29 1001.61 1002.11 1002.80 1003.62
1013.78 1013.32 1013.08 1013.12 1013.43 1013.93 1014.50 1014.97 1015.16 1014.95 1014.28 1013.15 1011.64 1009.91 1008.15 1006.55 1005.28 1004.45 1004.09 1004.14 1004.52 1005.08 1005.66 1006.14 1006.42 1006.45 1006.24 1005.83 1005.29 1004.67 1004.04 1003.44 1002.88 1002.37 1001.91 1001.51 1001.18 1000.94 1000.83 1000.89 1001.15 1001.60 1002.24 1003.02
1013.98 1013.53 1013.33 1013.42 1013.79 1014.35 1014.97 1015.46 1015.65 1015.42 1014.69 1013.47 1011.86 1010.02 1008.13 1006.41 1005.04 1004.11 1003.67 1003.67 1004.03 1004.59 1005.20 1005.74 1006.09 1006.21 1006.10 1005.79 1005.33 1004.79 1004.21 1003.63 1003.07 1002.53 1002.02 1001.55 1001.13 1000.79 1000.58 1000.54 1000.70 1001.07 1001.65 1002.39
1014.26 1013.86 1013.70 1013.83 1014.22 1014.79 1015.39 1015.86 1016.01 1015.72 1014.93 1013.66 1011.98 1010.08 1008.13 1006.35 1004.91 1003.91 1003.41 1003.35 1003.65 1004.17 1004.77 1005.31 1005.70 1005.89 1005.86 1005.65 1005.30 1004.86 1004.36 1003.85 1003.32 1002.79 1002.25 1001.71 1001.21 1000.76 1000.44 1000.27 1000.32 1000.58 1001.06 1001.74
1014.55 1014.19 1014.06 1014.20 1014.58 1015.11 1015.65 1016.03 1016.10 1015.74 1014.90 1013.59 1011.90 1010.00 1008.07 1006.30 1004.85 1003.84 1003.29 1003.16 1003.39 1003.83 1004.37 1004.87 1005.25 1005.47 1005.51 1005.40 1005.16 1004.84 1004.47 1004.05 1003.60 1003.10 1002.56 1001.98 1001.39 1000.84 1000.39 1000.09 999.99 1000.13 1000.51 1001.10
1014.71 1014.39 1014.28 1014.40 1014.71 1015.14 1015.56 1015.82 1015.78 1015.34 1014.46 1013.15 1011.52 1009.70 1007.86 1006.18 1004.80 1003.81 1003.24 1003.06 1003.20 1003.54 1003.97 1004.39 1004.73 1004.94 1005.02 1005.00 1004.88 1004.70 1004.47 1004.18 1003.83 1003.40 1002.88 1002.29 1001.64 1000.99 1000.41 999.97 999.73 999.73 999.98 1000.48
1014.62 1014.34 1014.22 1014.27 1014.49 1014.78 1015.04 1015.14 1014.98 1014.46 1013.56 1012.30 1010.78 1009.11 1007.44 1005.92 1004.67 1003.76 1003.22 1003.00 1003.05 1003.28 1003.58 1003.89 1004.15 1004.33 1004.43 1004.47 1004.46 1004.42 1004.34 1004.20 1003.97 1003.63 1003.16 1002.56 1001.88 1001.15 1000.46 999.89 999.51 999.37 999.49 999.88
1014.21 1013.93 1013.78 1013.76 1013.84 1013.97 1014.05 1013.99 1013.70 1013.11 1012.22 1011.06 1009.69 1008.23 1006.79 1005.50 1004.44 1003.66 1003.17 1002.95 1002.93 1003.04 1003.21 1003.39 1003.55 1003.67 1003.77 1003.86 1003.95 1004.03 1004.09 1004.08 1003.98 1003.74 1003.34 1002.77 1002.06 1001.28 1000.51 999.82 999.31 999.04 999.04 999.32
1013.45 1013.17 1012.97 1012.86 1012.80 1012.76 1012.66 1012.44 1012.04 1011.41 1010.57 1009.53 1008.36 1007.15 1005.99 1004.96 1004.13 1003.51 1003.12 1002.91 1002.83 1002.85 1002.90 1002.95 1003.00 1003.05 1003.13 1003.24 1003.39 1003.57 1003.74 1003.86 1003.88 1003.74 1003.41 1002.88 1002.18 1001.37 1000.53 999.76 999.14 998.75 998.63 998.79
1012.40 1012.11 1011.86 1011.65 1011.46 1011.27 1011.02 1010.67 1010.18 1009.55 1008.77 1007.89 1006.94 1006.00 1005.13 1004.39 1003.80 1003.37 1003.09 1002.92 1002.82 1002.75 1002.69 1002.63 1002.57 1002.55 1002.58 1002.68 1002.87 1003.11 1003.37 1003.58 1003.70 1003.64 1003.38 1002.90 1002.23 1001.42 1000.55 999.72 999.02 998.52 998.29 998.34
1011.18 1010.87 1010.58 1010.29 1010.00 1009.68 1009.32 1008.88 1008.36 1007.75 1007.07 1006.35 1005.63 1004.97 1004.38 1003.91 1003.56 1003.31 1003.15 1003.03 1002.91 1002.79 1002.64 1002.47 1002.32 1002.21 1002.18 1002.26 1002.44 1002.70 1003.01 1003.29 1003.46 1003.48 1003.28 1002.86 1002.23 1001.44 1000.56 999.70 998.93 998.36 998.03 997.97
1009.91 1009.60 1009.27 1008.94 1008.59 1008.20 1007.78 1007.31 1006.79 1006.23 1005.67 1005.12 1004.62 1004.19 1003.86 1003.63 1003.48 1003.40 1003.33 1003.26 1003.14 1002.97 1002.74 1002.49 1002.24 1002.05 1001.95 1001.98 1002.13 1002.38 1002.69 1002.99 1003.21 1003.27 1003.14 1002.77 1002.19 1001.43 1000.57 999.70 998.89 998.25 997.83 997.66
1008.75 1008.43 1008.10 1007.76 1007.39 1006.99 1006.56 1006.11 1005.64 1005.17 1004.73 1004.34 1004.03 1003.80 1003.67 1003.62 1003.62 1003.65 1003.65 1003.60 1003.47 1003.25 1002.96 1002.62 1002.29 1002.02 1001.85 1001.81 1001.90 1002.12 1002.41 1002.71 1002.94 1003.04 1002.94 1002.63 1002.10 1001.39 1000.56 999.69 998.86 998.17 997.66 997.39
1007.78 1007.47 1007.16 1006.83 1006.49 1006.13 1005.75 1005.36 1004.98 1004.62 1004.30 1004.05 1003.88 1003.80 1003.80 1003.86 1003.95 1004.03 1004.06 1004.00 1003.84 1003.57 1003.21 1002.80 1002.39 1002.04 1001.79 1001.67 1001.71 1001.87 1002.12 1002.40 1002.63 1002.75 1002.69 1002.43 1001.96 1001.30 1000.50 999.64 998.80 998.05 997.47 997.10
1007.03 1006.74 1006.46 1006.18 1005.90 1005.61 1005.32 1005.03 1004.76 1004.52 1004.32 1004.18 1004.12 1004.12 1004.19 1004.29 1004.40 1004.47 1004.47 1004.36 1004.14 1003.81 1003.38 1002.90 1002.42 1001.99 1001.67 1001.49 1001.46 1001.57 1001.78 1002.03 1002.26 1002.39 1002.37 1002.16 1001.74 1001.12 1000.36 999.51 998.65 997.85 997.20 996.74
1006.47 1006.20 1005.96 1005.74 1005.54 1005.36 1005.18 1005.02 1004.87 1004.74 1004.65 1004.60 1004.60 1004.64 1004.71 1004.79 1004.86 1004.87 1004.79 1004.61 1004.30 1003.89 1003.39 1002.84 1002.29 1001.81 1001.43 1001.19 1001.11 1001.17 1001.35 1001.58 1001.81 1001.96 1001.97 1001.80 1001.42 1000.85 1000.10 999.26 998.37 997.52 996.80 996.26
1006.05 1005.80 1005.60 1005.45 1005.34 1005.26 1005.21 1005.18 1005.15 1005.14 1005.13 1005.14 1005.17 1005.21 1005.24 1005.26 1005.24 1005.14 1004.96 1004.67 1004.27 1003.77 1003.20 1002.59 1001.99 1001.46 1001.04 1000.77 1000.66 1000.69 1000.85 1001.08 1001.31 1001.47 1001.51 1001.36 1001.02 1000.46 999.73 998.87 997.95 997.05 996.25 995.64
1005.69 1005.45 1005.29 1005.20 1005.18 1005.21 1005.28 1005.37 1005.46 1005.54 1005.61 1005.67 1005.70 1005.71 1005.69 1005.61 1005.48 1005.26 1004.96 1004.56 1004.05 1003.47 1002.83 1002.17 1001.54 1000.98 1000.55 1000.26 1000.14 1000.17 1000.33 1000.56 1000.80 1000.97 1001.02 1000.90 1000.56 1000.01 999.26 998.37 997.40 996.45 995.59 994.91
1005.35 1005.11 1004.97 1004.94 1004.99 1005.12 1005.30 1005.50 1005.70 1005.87 1006.00 1006.09 1006.12 1006.08 1005.99 1005.82 1005.57 1005.23 1004.81 1004.30 1003.70 1003.05 1002.35 1001.66 1001.02 1000.47 1000.04 999.77 999.65 999.69 999.86 1000.09 1000.34 1000.51 1000.56 1000.43 1000.08 999.50 998.72 997.79 996.78 995.76 994.85 994.14
1004.99 1004.75 1004.64 1004.65 1004.77 1004.98 1005.25 1005.54 1005.83 1006.07 1006.26 1006.36 1006.38 1006.31 1006.15 1005.90 1005.55 1005.11 1004.59 1003.99 1003.32 1002.61 1001.89 1001.19 1000.55 1000.02 999.61 999.36 999.28 999.33 999.51 999.74 999.97 1000.13 1000.15 999.99 999.60 998.99 998.16 997.18 996.12 995.07 994.13 993.39
1004.64 1004.40 1004.31 1004.35 1004.53 1004.80 1005.14 1005.51 1005.86 1006.17 1006.39 1006.51 1006.53 1006.43 1006.22 1005.90 1005.48 1004.97 1004.37 1003.71 1003.00 1002.27 1001.54 1000.85 1000.24 999.73 999.36 999.14 999.07 999.13 999.30 999.51 999.71 999.82 999.79 999.57 999.13 998.46 997.58 996.56 995.47 994.41 993.47 992.76
Thickness
5562 5550 5544 5543 5539 5534 5529 5528 5528 5536 5544 5543 5544 5550 5559 5564 5563 5564 5564 5565 5566 5571 5579 5583 5589 5597 5602 5606 5610 5616 5622 5628 5634 5639 5644 5649 5655 5661 5665 5670 5671 5674 5675 5675
5554 5549 5550 5545 5539 5531 5524 5522 5525 5535 5540 5538 5538 5546 5555 5560 5558 5559 5559 5560 5561 5565 5569 5573 5581 5589 5593 5597 5601 5606 5613 5620 5626 5632 5638 5644 5649 5654 5658 5662 5665 5668 5669 5670
5547 5550 5549 5540 5533 5525 5522 5519 5520 5522 5531 5535 5533 5538 5549 5555 5557 5556 5555 5555 5558 5560 5562 5567 5572 5580 5585 5589 5593 5600 5606 5612 5618 5624 5631 5635 5640 5645 5650 5656 5658 5662 5664 5665
5549 5550 5544 5536 5529 5524 5518 5526 5523 5520 5513 5515 5522 5513 5539 5545 5549 5551 5550 5550 5552 5555 5559 5562 5566 5572 5579 5585 5589 5594 5600 5607 5611 5617 5624 5629 5634 5640 5647 5651 5654 5657 5659 5661
5543 5545 5538 5531 5529 5524 5520 5524 5522 5520 5514 5510 5521 5512 5531 5542 5542 5545 5546 5548 5551 5552 5554 5557 5562 5567 5574 5580 5584 5590 5595 5600 5606 5611 5618 5624 5629 5635 5641 5645 5648 5650 5652 5655
5545 5546 5538 5531 5529 5525 5522 5520 5523 5526 5517 5503 5523 5517 5523 5533 5536 5541 5544 5546 5547 5549 5551 5553 5557 5561 5568 5574 5579 5585 5590 5595 5601 5607 5614 5620 5624 5629 5633 5639 5642 5643 5647 5650
5539 5543 5538 5531 5522 5520 5513 5500 5491 5491 5495 5505 5529 5521 5523 5534 5538 5539 5540 5541 5543 5545 5547 5549 5552 5557 5561 5567 5573 5579 5585 5590 5596 5602 5609 5616 5620 5625 5629 5634 5637 5639 5642 5646
5513 5520 5531 5524 5514 5504 5502 5496 5476 5469 5481 5500 5518 5517 5527 5537 5538 5539 5539 5540 5540 5542 5542 5544 5547 5552 5557 5561 5566 5573 5579 5584 5591 5598 5604 5611 5616 5620 5625 5630 5632 5637 5640 5644
5499 5508 5525 5521 5517 5508 5498 5494 5494 5479 5480 5483 5506 5521 5528 5533 5533 5533 5532 5533 5534 5537 5538 5540 5542 5547 5552 5556 5561 5568 5573 5579 5586 5593 5599 5605 5610 5616 5620 5625 5628 5633 5636 5640
5497 5490 5509 5516 5515 5509 5500 5493 5481 5468 5463 5473 5499 5510 5511 5515 5517 5521 5523 5523 5526 5529 5532 5534 5536 5541 5547 5552 5557 5562 5568 5573 5580 5587 5595 5601 5606 5611 5616 5620 5624 5628 5632 5636
5494 5480 5493 5503 5503 5496 5493 5486 5478 5469 5467 5462 5471 5495 5515 5511 5512 5511 5514 5517 5519 5522 5525 5528 5532 5537 5541 5546 5550 5556 5561 5566 5572 5579 5588 5593 5600 5605 5611 5616 5620 5625 5629 5632
5488 5477 5475 5492 5505 5502 5491 5482 5472 5454 5455 5461 5460 5484 5515 5511 5510 5508 5508 5511 5513 5516 5519 5523 5527 5531 5534 5539 5544 5549 5555 5560 5566 5572 5579 5587 5593 5599 5605 5612 5616 5620 5624 5627
5477 5465 5463 5484 5491 5487 5479 5476 5470 5462 5454 5453 5454 5479 5511 5507 5504 5503 5502 5503 5506 5508 5512 5516 5519 5523 5527 5532 5536 5542 5547 5553 5559 5566 5572 5579 5586 5593 5599 5606 5610 5615 5619 5622
5479 5463 5457 5459 5469 5468 5464 5466 5464 5455 5447 5452 5464 5477 5494 5495 5494 5495 5495 5496 5498 5501 5504 5507 5511 5515 5519 5525 5529 5535 5540 5545 5552 5558 5564 5571 5579 5587 5594 5600 5605 5610 5614 5618
5469 5460 5462 5466 5470 5469 5467 5468 5467 5459 5457 5453 5466 5473 5483 5485 5485 5487 5489 5490 5492 5495 5498 5501 5503 5507 5512 5517 5522 5528 5533 5538 5543 5549 5556 5563 5571 5579 5586 5593 5599 5604 5608 5613
5461 5454 5455 5461 5469 5470 5470 5475 5473 5469 5467 5464 5465 5472 5481 5480 5482 5483 5482 5483 5485 5487 5491 5495 5498 5501 5504 5509 5515 5520 5525 5531 5536 5542 5549 5556 5563 5571 5578 5584 5592 5597 5601 5606
5451 5444 5443 5451 5466 5462 5464 5480 5477 5473 5472 5466 5462 5468 5473 5473 5476 5475 5475 5476 5476 5479 5483 5486 5490 5493 5498 5502 5508 5513 5519 5525 5531 5537 5543 5549 5556 5563 5570 5576 5583 5589 5594 5599
5449 5440 5435 5438 5442 5437 5474 5488 5483 5475 5473 5469 5466 5467 5467 5467 5469 5470 5470 5468 5468 5471 5473 5477 5481 5487 5492 5497 5502 5507 5513 5518 5524 5530 5537 5543 5550 5556 5562 5568 5574 5581 5587 5591
5454 5439 5430 5428 5428 5445 5474 5479 5473 5462 5460 5464 5460 5459 5459 5459 5460 5463 5465 5462 5460 5461 5465 5469 5474 5479 5486 5490 5496 5500 5506 5511 5517 5524 5530 5537 5543 5548 5554 5559 5565 5572 5578 5584
5453 5437 5424 5423 5420 5433 5468 5469 5465 5455 5444 5456 5454 5451 5450 5448 5438 5447 5454 5454 5454 5456 5458 5463 5467 5473 5478 5483 5488 5493 5498 5504 5511 5518 5524 5530 5535 5541 5546 5552 5558 5564 5569 5575
5434 5425 5420 5416 5416 5435 5463 5460 5453 5432 5435 5447 5447 5443 5440 5436 5432 5439 5444 5446 5447 5449 5452 5456 5461 5465 5471 5476 5481 5486 5491 5498 5505 5511 5518 5523 5528 5534 5539 5544 5550 5556 5560 5566
5435 5425 5420 5417 5413 5431 5457 5448 5437 5435 5441 5440 5438 5435 5433 5432 5433 5434 5435 5436 5438 5440 5444 5449 5453 5458 5464 5469 5473 5480 5485 5492 5498 5504 5510 5516 5521 5526 5531 5537 5542 5548 5552 5557
5445 5441 5436 5432 5440 5454 5451 5444 5441 5437 5434 5432 5429 5427 5426 5424 5424 5425 5425 5427 5430 5432 5435 5439 5443 5449 5455 5460 5466 5471 5479 5485 5490 5496 5502 5508 5514 5519 5524 5529 5534 5540 5544 5549
5450 5449 5437 5433 5443 5446 5445 5440 5436 5431 5426 5424 5421 5419 5416 5414 5415 5416 5417 5420 5422 5424 5427 5431 5435 5440 5446 5452 5457 5464 5471 5477 5482 5488 5494 5500 5505 5511 5516 5522 5527 5532 5537 5542
5443 5437 5426 5426 5434 5435 5436 5432 5428 5424 5420 5416 5413 5411 5408 5405 5406 5407 5409 5412 5414 5417 5421 5423 5427 5432 5439 5444 5450 5457 5462 5468 5473 5479 5485 5491 5497 5502 5508 5514 5520 5525 5530 5536
5439 5430 5421 5424 5431 5424 5423 5423 5419 5414 5410 5407 5404 5402 5400 5398 5398 5400 5402 5405 5407 5410 5414 5417 5421 5426 5431 5437 5444 5449 5455 5460 5465 5470 5475 5481 5487 5493 5500 5505 5510 5515 5521 5527